Location: Melbourne
(37.8666°S, 145.1333°E)
Time: 06:47:06
(UTC+10:00)

Iridium 72 - Visible Passes

Search period start: 26 June 2017 00:00
Search period end: 06 July 2017 00:00
Orbit: 776 x 779 km, 86.4° (Epoch: 25 June)

Date Brightness Start Highest point End Pass type
(mag) Time Alt. Az. Time Alt. Az. Time Alt. Az.
03 Jul 8.5 06:44:05 10° E 06:45:57 12° ESE 06:47:48 10° SE visible
04 Jul 8.0 20:09:35 12° NNW 20:09:35 12° NNW 20:10:00 10° NNW visible
05 Jul 6.8 19:34:07 29° N 19:34:07 29° N 19:36:38 10° N visible
